When you browse on this site, cookies collect data to enhance your experience and personalize the content and advertising you see.
Visit our Privacy Policy to learn more. By continuing to use the site, you agree to this use of cookies and data.
  • In Schweiz
  • Länderverzeichnis
  • Für 7 Tage
  • Wassertemperatur
  • Wetterkarte
  • Widgets
  • user-avatar
    Anmelden

    Stündliche Wetter Vasilkovka

    Heute, 21 Februar, Freitag

    Zeit Temperatur Niederschläge Wind Luftdruck Luftfeuchtigkeit
    00:00 -1°C° 0 mm 3 m/S 756 mmHg 93%
    01:00 -1°C° 0 mm 3 m/S 756 mmHg 94%
    02:00 -1°C° 0 mm 3 m/S 756 mmHg 98%
    03:00 -1°C° 0.1 mm 3 m/S 756 mmHg 98%
    04:00 0°C° 0.1 mm 3 m/S 756 mmHg 98%
    05:00 0°C° 0.1 mm 3 m/S 756 mmHg 98%
    06:00 0°C° 0 mm 3 m/S 756 mmHg 97%
    07:00 0°C° 0 mm 3 m/S 756 mmHg 97%
    08:00 -1°C° 0 mm 4 m/S 756 mmHg 96%
    15:00 0°C° 0 mm 4 m/S 755 mmHg 89%
    16:00 -1°C° 0 mm 4 m/S 755 mmHg 92%
    17:00 -1°C° 0 mm 4 m/S 755 mmHg 95%
    18:00 0°C° 0.1 mm 3 m/S 756 mmHg 96%
    19:00 0°C° 0.1 mm 3 m/S 756 mmHg 97%
    20:00 0°C° 0.1 mm 3 m/S 756 mmHg 97%
    21:00 0°C° 0.1 mm 3 m/S 756 mmHg 97%
    22:00 0°C° 0.1 mm 3 m/S 757 mmHg 97%
    23:00 0°C° 0.1 mm 3 m/S 757 mmHg 98%

    Morgen, 22 Februar, Samstag

    Zeit Temperatur Niederschläge Wind Luftdruck Luftfeuchtigkeit
    00:00 0°C° 0.1 mm 3 m/S 757 mmHg 97%
    01:00 0°C° 0.1 mm 3 m/S 757 mmHg 97%
    02:00 0°C° 0.1 mm 3 m/S 757 mmHg 97%
    03:00 0°C° 0.1 mm 3 m/S 757 mmHg 97%
    04:00 0°C° 0.1 mm 3 m/S 757 mmHg 97%
    05:00 -1°C° 0.1 mm 3 m/S 757 mmHg 97%
    06:00 -1°C° 0 mm 3 m/S 758 mmHg 96%
    07:00 -1°C° 0 mm 3 m/S 758 mmHg 95%
    08:00 -1°C° 0 mm 3 m/S 758 mmHg 94%
    09:00 0°C° 0 mm 3 m/S 758 mmHg 92%
    10:00 -1°C° 0 mm 4 m/S 758 mmHg 90%
    11:00 0°C° 0 mm 4 m/S 759 mmHg 88%
    12:00 +1°C° 0 mm 3 m/S 759 mmHg 86%
    13:00 +1°C° 0 mm 3 m/S 759 mmHg 85%
    14:00 +1°C° 0 mm 3 m/S 759 mmHg 84%
    15:00 +1°C° 0 mm 3 m/S 759 mmHg 85%
    16:00 +1°C° 0 mm 2 m/S 758 mmHg 86%
    17:00 +1°C° 0 mm 2 m/S 758 mmHg 87%
    18:00 +1°C° 0 mm 2 m/S 758 mmHg 88%
    19:00 +1°C° 0 mm 2 m/S 758 mmHg 90%
    20:00 +2°C° 0 mm 1 m/S 758 mmHg 91%
    21:00 +2°C° 0 mm 1 m/S 758 mmHg 92%
    22:00 +1°C° 0 mm 0 m/S 758 mmHg 92%
    23:00 +1°C° 0 mm 0 m/S 758 mmHg 92%

    übermorgen, 23 Februar, Sonntag

    Zeit Temperatur Niederschläge Wind Luftdruck Luftfeuchtigkeit
    00:00 0°C° 0 mm 0 m/S 757 mmHg 92%
    01:00 +1°C° 0 mm 1 m/S 757 mmHg 92%
    02:00 +1°C° 0 mm 1 m/S 756 mmHg 91%
    03:00 -1°C° 0 mm 2 m/S 756 mmHg 91%
    04:00 -1°C° 0 mm 3 m/S 755 mmHg 90%
    05:00 -1°C° 0 mm 3 m/S 754 mmHg 90%
    06:00 -1°C° 0 mm 4 m/S 754 mmHg 88%
    07:00 -1°C° 0 mm 5 m/S 753 mmHg 86%
    08:00 -2°C° 0 mm 6 m/S 753 mmHg 84%
    09:00 -1°C° 0 mm 6 m/S 752 mmHg 81%
    10:00 -1°C° 0 mm 7 m/S 751 mmHg 79%
    11:00 0°C° 0 mm 8 m/S 751 mmHg 76%
    12:00 0°C° 0.2 mm 8 m/S 750 mmHg 81%
    13:00 0°C° 0.2 mm 9 m/S 749 mmHg 86%
    14:00 0°C° 0.2 mm 9 m/S 748 mmHg 91%
    15:00 0°C° 0.8 mm 9 m/S 747 mmHg 93%
    16:00 0°C° 0.8 mm 9 m/S 747 mmHg 94%
    17:00 0°C° 0.8 mm 8 m/S 746 mmHg 96%
    18:00 0°C° 0.6 mm 7 m/S 746 mmHg 94%
    19:00 +1°C° 0.6 mm 6 m/S 746 mmHg 92%
    20:00 +1°C° 0.6 mm 5 m/S 746 mmHg 90%
    21:00 0°C° 0 mm 4 m/S 746 mmHg 91%
    22:00 -1°C° 0 mm 4 m/S 746 mmHg 91%
    23:00 0°C° 0 mm 3 m/S 746 mmHg 91%

    24 Februar, Montag

    Zeit Temperatur Niederschläge Wind Luftdruck Luftfeuchtigkeit
    00:00 -1°C° 0 mm 3 m/S 746 mmHg 91%
    01:00 -1°C° 0 mm 3 m/S 746 mmHg 91%
    02:00 -1°C° 0 mm 3 m/S 746 mmHg 92%
    03:00 -1°C° 0 mm 3 m/S 745 mmHg 92%
    04:00 -1°C° 0 mm 3 m/S 744 mmHg 93%
    05:00 -1°C° 0 mm 3 m/S 743 mmHg 93%
    06:00 -2°C° 0 mm 4 m/S 742 mmHg 91%
    07:00 -1°C° 0 mm 5 m/S 741 mmHg 89%
    08:00 -1°C° 0 mm 6 m/S 741 mmHg 87%
    09:00 -2°C° 1.1 mm 7 m/S 739 mmHg 90%
    10:00 -2°C° 1.1 mm 7 m/S 737 mmHg 94%
    11:00 -2°C° 1.1 mm 7 m/S 735 mmHg 97%
    12:00 -1°C° 2.2 mm 7 m/S 733 mmHg 97%
    13:00 +1°C° 2.2 mm 6 m/S 732 mmHg 97%
    14:00 +2°C° 2.2 mm 5 m/S 730 mmHg 97%
    15:00 +1°C° 1.4 mm 4 m/S 730 mmHg 97%
    16:00 +1°C° 1.4 mm 4 m/S 731 mmHg 98%
    17:00 +1°C° 1.4 mm 4 m/S 731 mmHg 98%
    18:00 -1°C° 1.9 mm 7 m/S 732 mmHg 97%
    19:00 -3°C° 1.9 mm 10 m/S 733 mmHg 96%
    20:00 -4°C° 1.9 mm 13 m/S 735 mmHg 94%
    21:00 -4°C° 0.3 mm 13 m/S 736 mmHg 90%
    22:00 -3°C° 0.3 mm 12 m/S 737 mmHg 85%
    23:00 -3°C° 0.3 mm 11 m/S 739 mmHg 80%

    25 Februar, Dienstag

    Zeit Temperatur Niederschläge Wind Luftdruck Luftfeuchtigkeit
    00:00 -3°C° 0 mm 11 m/S 740 mmHg 81%
    01:00 -3°C° 0 mm 10 m/S 741 mmHg 82%
    02:00 -4°C° 0 mm 10 m/S 742 mmHg 83%
    03:00 -4°C° 0 mm 9 m/S 743 mmHg 83%
    04:00 -5°C° 0 mm 9 m/S 744 mmHg 82%
    05:00 -6°C° 0 mm 9 m/S 745 mmHg 81%
    06:00 -6°C° 0 mm 8 m/S 746 mmHg 80%
    07:00 -5°C° 0 mm 8 m/S 747 mmHg 80%
    08:00 -5°C° 0 mm 8 m/S 748 mmHg 79%
    09:00 -5°C° 0 mm 8 m/S 749 mmHg 77%
    10:00 -4°C° 0 mm 8 m/S 749 mmHg 76%
    11:00 -4°C° 0 mm 8 m/S 750 mmHg 74%
    12:00 -2°C° 0 mm 7 m/S 750 mmHg 74%
    13:00 -2°C° 0 mm 7 m/S 750 mmHg 74%
    14:00 -2°C° 0 mm 6 m/S 750 mmHg 75%
    15:00 -1°C° 0 mm 5 m/S 750 mmHg 77%
    16:00 -2°C° 0 mm 4 m/S 750 mmHg 80%
    17:00 -1°C° 0 mm 3 m/S 750 mmHg 83%
    18:00 -2°C° 0 mm 3 m/S 750 mmHg 83%
    19:00 -2°C° 0 mm 2 m/S 751 mmHg 82%
    20:00 -3°C° 0 mm 2 m/S 751 mmHg 82%
    21:00 -2°C° 0 mm 2 m/S 751 mmHg 81%
    22:00 -2°C° 0 mm 3 m/S 750 mmHg 79%
    23:00 -2°C° 0 mm 3 m/S 750 mmHg 77%

    26 Februar, Mittwoch

    Zeit Temperatur Niederschläge Wind Luftdruck Luftfeuchtigkeit
    00:00 -3°C° 0 mm 4 m/S 750 mmHg 77%
    01:00 -2°C° 0 mm 4 m/S 750 mmHg 76%
    02:00 -2°C° 0 mm 5 m/S 749 mmHg 75%
    03:00 -2°C° 0 mm 5 m/S 749 mmHg 77%
    04:00 -2°C° 0 mm 5 m/S 748 mmHg 79%
    05:00 -1°C° 0 mm 5 m/S 748 mmHg 81%
    06:00 -2°C° 0 mm 6 m/S 748 mmHg 82%
    07:00 -2°C° 0 mm 6 m/S 747 mmHg 83%
    08:00 -1°C° 0 mm 7 m/S 747 mmHg 84%
    09:00 0°C° 0 mm 7 m/S 747 mmHg 81%
    10:00 +2°C° 0 mm 7 m/S 747 mmHg 78%
    11:00 +3°C° 0 mm 7 m/S 746 mmHg 75%
    12:00 +3°C° 0 mm 7 m/S 746 mmHg 72%
    13:00 +3°C° 0 mm 7 m/S 746 mmHg 69%
    14:00 +4°C° 0 mm 7 m/S 745 mmHg 66%
    15:00 +3°C° 0 mm 6 m/S 745 mmHg 68%
    16:00 +2°C° 0 mm 5 m/S 745 mmHg 71%
    17:00 +3°C° 0 mm 4 m/S 744 mmHg 74%
    18:00 +3°C° 0 mm 4 m/S 744 mmHg 76%
    19:00 +1°C° 0 mm 4 m/S 744 mmHg 78%
    20:00 +1°C° 0 mm 5 m/S 744 mmHg 80%
    21:00 +1°C° 0.1 mm 5 m/S 744 mmHg 82%
    22:00 +1°C° 0.1 mm 5 m/S 744 mmHg 85%
    23:00 +1°C° 0.1 mm 4 m/S 743 mmHg 87%
    Mehr zeigen